Regional Weather Roundup
Issued by NWS

Home | Current Version | Previous Version | Text Only | Print | Product List | Glossary Off
Versions: 1 2 3 4 5 6 7 8 9 10 11 12 13 14 15 16 17 18 19 20 21 22 23 24 25 26 27 28 29 30 31 32 33 34 35 36 37 38 39 40 41 42 43 44 45 46 47 48 49 50

000
ASUS43 KMKX 011359
RWRWI

WISCONSIN REGIONAL WEATHER ROUNDUP
NATIONAL WEATHER SERVICE MILWAUKEE/SULLIVAN WI
800 AM CST SUN MAR 01 2015

NOTE: "FAIR" INDICATES FEW OR NO CLOUDS BELOW 12,000 FEET WITH NO
SIGNIFICANT WEATHER AND/OR OBSTRUCTIONS TO VISIBILITY.

WIZ001-002-006>008-014>016-023>028-011500-
NORTHWEST WISCONSIN

CITY           SKY/WX    TMP DP  RH WIND       PRES   REMARKS
SUPERIOR ARPT  LGT SNOW  15  10  80 W7        30.16F WCI   5
ASHLAND        LGT SNOW  16  10  77 SW9       30.16F WCI   4
HAYWARD        LGT SNOW  14   9  80 SW8       30.15S WCI   3
SIREN          CLOUDY    16  12  84 SW7       30.18S WCI   6
CUMBERLAND     LGT SNOW  14  10  85 SW9       30.16F WCI   2
RICE LAKE      FLURRIES  14  10  85 S7        30.20F WCI   4
CHETEK         LGT SNOW  13  10  86 S3        30.20F
LADYSMITH      LGT SNOW  12   8  85 S8        30.20F WCI   0
EAU CLAIRE     CLOUDY    14   9  80 S9        30.22F HAZE    WCI   2
MENOMONIE      LGT SNOW  14  10  83 S5        30.23S WCI   6
NEW RICHMOND   CLOUDY    15  12  85 SW8       30.20S WCI   5
OSCEOLA        CLOUDY    17  13  86 SW7       30.23R WCI   7
$$

WIZ003>005-009-010-017-018-011500-
NORTH CENTRAL WISCONSIN

CITY           SKY/WX    TMP DP  RH WIND       PRES   REMARKS
MANITOWISH WTR LGT SNOW  10   6  83 SW8       30.12F WCI  -2
ARBOR VITAE    LGT SNOW  11   6  80 SW8       30.14F WCI   0
WOODRUFF       LGT SNOW  11   6  80 SW8       30.14F WCI   0
RHINELANDER    LGT SNOW   9   3  77 SW8       30.15F WCI  -3
EAGLE RIVER    LGT SNOW   9   2  75 SW8       30.14S WCI  -4
LAND O LAKES   LGT SNOW   8   3  79 SW3       30.13S
PHILLIPS       LGT SNOW  10   6  85 S7        30.15F WCI  -1
TOMAHAWK       LGT SNOW   9   4  81 CALM      30.18F
MEDFORD        LGT SNOW   9   6  86 S7        30.18F WCI  -2
MERRILL        LGT SNOW  10   5  81 SW3       30.20F
$$

WIZ029-030-035-036-043>047-011500-
CENTRAL WISCONSIN

CITY           SKY/WX    TMP DP  RH WIND       PRES   REMARKS
WAUSAU         LGT SNOW  10   6  84 SW6       30.21F FOG     WCI   0
MOSINEE        NOT AVBL
MARSHFIELD     LGT SNOW  10   6  84 SW10      30.22F FOG     WCI  -4
STEVENS POINT  CLOUDY     8   4  84 SW8       30.26F WCI  -5
WAUPACA        PTSUNNY    9   4  82 CALM      30.30F
WAUTOMA        PTSUNNY    1  -2  85 CALM      30.31F
WISC RAPIDS    CLOUDY     8   3  80 S7        30.28F WCI  -3
CAMP DOUGLAS   NOT AVBL
$$

WIZ011>013-019>022-031-037>040-048>050-011500-
NORTHEAST WISCONSIN

CITY           SKY/WX    TMP DP  RH WIND       PRES   REMARKS
ANTIGO         LGT SNOW   7   3  84 SW7       30.20S WCI  -4
SHAWANO        CLOUDY    12   5  73 CALM      30.29S
OCONTO         MOSUNNY   11   5  77 SW6       30.30S WCI   1
STURGEON BAY   MOSUNNY   12   7  79 SW10      30.30S WCI  -1
GREEN BAY      PTSUNNY   11   7  84 S5        30.31S FOG     WCI   3
MANITOWOC      NOT AVBL
APPLETON       PTSUNNY   10   7  85 SW5       30.30S WCI   2
CLINTONVILLE   PTSUNNY   10   5  79 S6        30.29S WCI   1
OSHKOSH        MOSUNNY   12   8  84 SW5       30.31S FOG     WCI   4
$$

WIZ032>034-041-042-053>061-011500-
SOUTHWEST WISCONSIN

CITY           SKY/WX    TMP DP  RH WIND       PRES   REMARKS
LA CROSSE      CLOUDY    13   8  81 SE8       30.31S HAZE    WCI   2
SPARTA         PTSUNNY    6   3  84 CALM      30.30S
VIROQUA        MOSUNNY    9   7  92 S7        30.26S WCI  -2
BOSCOBEL       CLOUDY     9   4  80 CALM      30.34F HAZE
PRAIRIE DU CHI MIX PCPN  10   5  79 CALM      30.34S
PLATTEVILLE    CLOUDY    12  10  89 S6        30.33R VSB 1/4 WCI   3
$$

WIZ056-057-062-063-064-067-068-011500-
SOUTH CENTRAL WISCONSIN

CITY           SKY/WX    TMP DP  RH WIND       PRES   REMARKS
REEDSBURG      PTSUNNY   11   8  89 S6        30.30F WCI   1
BARABOO/DELLS  PTSUNNY   11   8  88 SW6       30.29F WCI   2
LONE ROCK      NOT AVBL
MINERAL POINT  LGT SNOW  14  10  85 S5        30.31S WCI   6
MADISON        CLOUDY    15  10  80 CALM      30.33R
MIDDLETON      MOSUNNY   15  11  84 CALM      30.33R
WATERTOWN      PTSUNNY   14  12  93 SW3       30.33S
MONROE         CLOUDY    14  12  92 SW8       30.32R FOG     WCI   3
JANESVILLE     LGT SNOW  16  12  86 CALM      30.35S
$$

WIZ051-052-058>065-066-070>072-011500-
SOUTHEAST WISCONSIN

CITY           SKY/WX    TMP DP  RH WIND       PRES   REMARKS
MILWAUKEE      PTSUNNY   15  11  83 SW8       30.35S FOG     WCI   4
WAUKESHA       MOSUNNY   12  10  92 SW5       30.34S FOG     WCI   4
MILWAUKEE/TIMM LGT SNOW  12  10  92 S3        30.35S
RACINE         CLOUDY    15  12  88 W9        30.38R FOG     WCI   3
BURLINGTON     CLOUDY    12  10  92 CALM      30.35S FOG
KENOSHA        FOG       14  12  92 W7        30.36R VSB 3/4 WCI   4
FOND DU LAC    PTSUNNY   13   9  84 S5        30.32S WCI   5
SHEBOYGAN      MOSUNNY   13   9  84 S6        30.33R FOG     WCI   4
WEST BEND      PTSUNNY   14  10  85 SW5       30.32S WCI   6
JUNEAU         PTSUNNY   12  10  90 S5        30.32S WCI   4
$$

LSZ147-162-011500-
LAKE SUPERIOR

STATION/POSITION TIME  TEMP    WIND        PRES    WAVE
                       AIR SEA DIR/SP/G            HT/PER
                 (UTC) (F)     (DEG/KT/KT) (MB)    (FT/S)
DEVILS ISLAND    1300   16     220/ 18/ 22 1022.2F
PORT WING        1300   16     200/  6/ 13 1021.7F
SAXON HARBOR     1300   16     210/ 11/ 17 1021.7F
$$

LMZ867-665-643>646-011500-
LAKE MICHIGAN

STATION/POSITION TIME  TEMP    WIND        PRES    WAVE
                       AIR SEA DIR/SP/G            HT/PER
                 (UTC) (F)     (DEG/KT/KT) (MB)    (FT/S)
NORTHPORT PIER   1306   12     200/  5/  9 1025.7F
KEWAUNEE LAKESHO 1300   11     250/  3/  5 1026.0F
SHEBOYGAN LAKESH 1300   15     210/  6/  7 1028.7F
PORT WASHINGTON  1300   14     240/  4/  6 1028.4
MILWAUKEE LAKESH 1300   15     210/  6/  7   N/A
KENOSHA   LAKESH 1300   15     240/  4/  8 1028.1F
$$

TC  - TEMPERATURE IN CELSIUS
VSB - VISIBILITY IN STATUTE MILES
WCI - WIND CHILL INDEX
HX  - HEAT INDEX



USA.gov is the U.S. government's official web portal to all federal, state and local government web resources and services.